Home   Weather   Springe   Past weeks

Flag for Germany Past Weather in Springe, Lower Saxony, Germany — Yesterday and Last 2 Weeks

Now
23 °F

Ice fog.


Feels Like: 23 °F
Forecast: 18 / 29 °F
Wind: 2 mph from West

Location: Wunstorf Airport

Current Time: Jan 17, 2017 at 8:01:27 am

Latest Report: Jan 17, 2017 at 7:20 am


Visibility: 0 mi

Pressure: 30.57 "Hg

Humidity: 100%

Dew Point: 23 °F

Location of SpringeLocation

Past Weather in Springe — Graph

°F

Springe Temperature Yesterday

Maximum temperature yesterday: 28 °F (at 12:20 am)
Minimum temperature yesterday: 23 °F (at 6:20 am)
Average temperature yesterday: 26 °F

High & Low Weather Summary for the Past Weeks

 TemperatureHumidityPressure
High45 °F (Jan 11, 3:10 pm)100% (Jan 7, 5:20 pm)30.77 "Hg (Jan 7, 5:20 pm)
Low12 °F (Jan 6, 8:20 am)51% (Jan 4, 10:20 pm)28.94 "Hg (Jan 13, 4:20 am)
Average33 °F85%30.01 "Hg
* Reported Jan 2 10:20 am — Jan 17 6:20 am, Springe, Weather by CustomWeather, © 2017

Note: Actual official high and low records may vary slightly from our data, if they occured in-between our weather recording intervals... More about our weather records

Advertising

Springe Weather History for the Previous 24 Hours

Scroll right to see more
 ConditionsComfort  
Time TempWeatherWind HumidityBarometerVisibility
6:20 am
Tue, Jan 17
23 °FIce fog.2 mph93%30.57 "Hg1 mi
5:20 am23 °FIce fog.5 mph100%30.54 "Hg1 mi
4:20 am25 °FCold.3 mph93%30.54 "HgN/A
3:20 am25 °FCold.3 mph93%30.54 "HgN/A
2:20 am25 °FCold.3 mph93%30.51 "HgN/A
1:20 am25 °FCold.5 mph93%30.51 "HgN/A
12:20 am25 °FCold.2 mph93%30.51 "HgN/A
11:20 pm
Mon, Jan 16
25 °FCold.5 mph93%30.51 "HgN/A
10:20 pm25 °FCold.5 mph93%30.48 "HgN/A
9:20 pm27 °FChilly.5 mph93%30.45 "HgN/A
8:20 pm25 °FCold.5 mph100%30.45 "HgN/A
7:20 pm25 °FCold.2 mph93%30.42 "HgN/A
6:20 pm25 °FIce fog.3 mph93%30.42 "Hg0 mi
5:20 pm25 °FIce fog.5 mph100%30.39 "Hg0 mi
4:20 pm27 °FIce fog.3 mph93%30.39 "Hg0 mi
3:52 pm27 °FIce fog.5 mph93%30.39 "Hg0 mi
3:20 pm27 °FIce fog.5 mph93%30.36 "Hg0 mi
2:20 pm27 °FIce fog.5 mph93%30.36 "Hg0 mi
2:01 pm27 °FIce fog.5 mph93%30.36 "Hg1 mi
1:20 pm27 °FIce fog.3 mph93%30.36 "Hg1 mi
1:10 pm27 °FIce fog.5 mph93%30.36 "Hg1 mi
12:20 pm25 °FIce fog.3 mph93%30.33 "Hg0 mi
11:50 am25 °FIce fog.3 mph93%30.33 "Hg0 mi
11:20 am25 °FIce fog.5 mph93%30.33 "Hg0 mi
10:20 am25 °FIce fog.3 mph93%30.33 "Hg0 mi
9:20 am23 °FIce fog.3 mph93%30.30 "Hg0 mi
8:49 am23 °FIce fog.2 mph93%30.30 "Hg0 mi
8:20 am23 °FIce fog.3 mph93%30.30 "Hg0 mi
Weather by CustomWeather, © 2017

See weather overviewHow to use our weather pages